Terminal Aerodrome Forecast
Issued by NWS

Current Version | Previous Version | Graphics & Text | Print | Product List | Glossary Off
Versions: 1 2 3 4 5 6 7 8 9 10 11 12 13 14 15 16 17 18

000
FTUS41 KPBZ 291100
TAFHLG
TAF
KHLG 291120Z 2912/3012 VRB03KT P6SM SKC
     FM291500 13005KT P6SM SKC=

USA.gov is the U.S. government's official web portal to all federal, state and local government web resources and services.